Location: Écuvilly
(49.6505°N, 2.9206°E)
Time: 18:37:25
(UTC+00:00)

Helios 1A Rocket - Pass Details

Date: 17 November 2025
Orbit: 439 x 451 km, 98.3° (Epoch: 10 December)

Event Time Altitude Azimuth Distance (km) Brightness Sun altitude
Exits shadow 17:50:05 27° 136° (SE) 887 3.6 -17.1°
Drops below altitude 10° 17:52:05 10° 166° (SSE) 1,543 5.0 -17.5°
Sets 17:54:17 0° 176° (S) 2,440 6.2 -17.8°
